Weather History for Brisbane, QU

Change the Weather History Date:

Sunday, August 11, 2013

  Actual Average Record
Temperature  
Mean Temperature 60 °F -  
Max Temperature 73 °F 72 °F 78 °F (2007)
Min Temperature 48 °F 52 °F 39 °F (2008)
Degree Days  
Heating Degree Days 4    
Growing Degree Days 10 (Base 50)    
Moisture  
Dew Point 50 °F    
Average Humidity 67    
Maximum Humidity 100    
Minimum Humidity 31    
Precipitation  
Precipitation 0.00 in 0.05 in - ()
Sea Level Pressure  
Sea Level Pressure 30.05 in    
Wind  
Wind Speed 5 mph ()    
Max Wind Speed 10 mph    
Max Gust Speed -    
Visibility 16.0 miles    
Events      
Averages and records for this station are not official NWS values.
T = Trace of Precipitation, MM = Missing Value Source: Averaged Metar Reports

Daily Weather History Graph

Daily Weather History Graph

Search for Another Location

Airport:

Trip Planner

Search our weather history database for the weather conditions in past years. The results will help you decide how hot, cold, wet, or windy it might be!

Date:

Astronomy

Aug. 11, 2013 Rise Set
Actual Time 6:21 AM AEST 5:24 PM AEST
Civil Twilight 5:57 AM AEST 5:48 PM AEST
Nautical Twilight 5:29 AM AEST 6:16 PM AEST
Astronomical Twilight 5:02 AM AEST 6:43 PM AEST
Moon 8:34 AM AEST (8/11) 9:21 PM AEST (8/11)
Length of Visible Light 11h 51m
Length of Day
11h 02m
Waxing Crescent, 17% of the Moon is Illuminated
Aug 11
Waxing Crescent
Aug 14
First Quarter
Aug 21
Full
Aug 28
Last Quarter
Sep 5
New

Hourly Weather History & Observations

Time (AEST) Temp. Dew Point Humidity Pressure Visibility Wind Dir Wind Speed Gust Speed Precip Events Conditions
12:00 AM 55 °F 47 °F 67% 30.07 in 25 mi Calm Calm - -   Partly Cloudy
12:00 AM 55.4 °F 46.4 °F 72% 30.06 in - Calm Calm - N/A   Clear
12:30 AM 53.6 °F 48.2 °F 82% 30.06 in - Calm Calm - N/A   Clear
1:00 AM 53 °F 47 °F 74% 30.07 in - Calm Calm - -  
1:00 AM 53.6 °F 46.4 °F 77% 30.06 in - Calm Calm - N/A   Clear
1:30 AM 51.8 °F 46.4 °F 82% 30.04 in - West 1.2 mph - N/A   Clear
2:00 AM 51.8 °F 46.4 °F 82% 30.04 in - West 3.5 mph - N/A   Clear
2:30 AM 50.0 °F 46.4 °F 87% 30.04 in - SSW 6.9 mph - N/A   Clear
3:00 AM 51.8 °F 46.4 °F 82% 30.04 in - SSW 5.8 mph - N/A   Clear
3:30 AM 51.8 °F 46.4 °F 82% 30.04 in - South 8.1 mph - N/A   Clear
4:00 AM 53 °F 46 °F 69% 30.05 in - SSW 6.9 mph - -  
4:00 AM 53.6 °F 46.4 °F 77% 30.04 in - SSW 6.9 mph - N/A   Clear
4:30 AM 51.8 °F 44.6 °F 76% 30.04 in - SSW 6.9 mph - N/A   Clear
5:00 AM 53.6 °F 44.6 °F 72% 30.04 in - SSW 6.9 mph - N/A   Clear
5:30 AM 51.8 °F 46.4 °F 82% 30.06 in - SSW 2.3 mph - N/A   Clear
6:00 AM 51.8 °F 46.4 °F 82% 30.06 in - SSW 4.6 mph - N/A   Clear
6:30 AM 50.0 °F 46.4 °F 87% 30.06 in - Calm Calm - N/A   Clear
7:00 AM 53 °F 46 °F 71% 30.10 in - SW 5.8 mph - -  
7:00 AM 53.6 °F 46.4 °F 77% 30.09 in - SW 5.8 mph - N/A   Clear
7:30 AM 53.6 °F 46.4 °F 77% 30.09 in - SSW 4.6 mph - N/A   Clear
8:00 AM 57.2 °F 48.2 °F 72% 30.09 in - SSW 5.8 mph - N/A   Clear
8:30 AM 60.8 °F 48.2 °F 63% 30.09 in - South 5.8 mph - N/A   Clear
9:00 AM 62 °F 49 °F 51% 30.11 in 16 mi SW 5.8 mph - -   Partly Cloudy
9:00 AM 62.6 °F 48.2 °F 59% 30.09 in - SW 5.8 mph - N/A   Clear
9:30 AM 66.2 °F 48.2 °F 52% 30.09 in - WSW 5.8 mph - N/A   Clear
10:00 AM 69 °F 46 °F 32% 30.11 in - SSW 5.8 mph - -  
10:00 AM 69.8 °F 46.4 °F 43% 30.09 in - SSW 5.8 mph - N/A   Clear
10:30 AM 71.6 °F 44.6 °F 38% 30.09 in - West 4.6 mph - N/A   Clear
11:00 AM 71.6 °F 42.8 °F 35% 30.09 in - SW 3.5 mph - N/A   Clear
11:30 AM 73.4 °F 44.6 °F 36% 30.06 in - North 6.9 mph - N/A   Clear
12:00 PM 73 °F 50 °F 33% 30.06 in 22 mi NNE 6.9 mph - -   Partly Cloudy
12:00 PM 73.4 °F 50.0 °F 44% 30.04 in - NNE 6.9 mph - N/A   Clear
12:30 PM 71.6 °F 48.2 °F 43% 30.04 in - North 9.2 mph - N/A   Clear
1:00 PM 72 °F 50 °F 34% 30.04 in - NNE 9.2 mph - -  
1:00 PM 71.6 °F 50.0 °F 46% 30.04 in - NNE 9.2 mph - N/A   Clear
1:30 PM 73.4 °F 50.0 °F 44% 30.04 in - NNE 6.9 mph - N/A   Clear
2:00 PM 73.4 °F 48.2 °F 41% 30.01 in - NE 6.9 mph - N/A   Clear
2:30 PM 73.4 °F 51.8 °F 47% 30.01 in - NNE 8.1 mph - N/A   Clear
3:00 PM 72 °F 48 °F 31% 30.01 in 22 mi NE 10.4 mph - -   Partly Cloudy
3:00 PM 71.6 °F 48.2 °F 43% 30.01 in - NNE 10.4 mph - N/A   Clear
3:30 PM 71.6 °F 48.2 °F 43% 30.01 in - NNE 10.4 mph - N/A   Clear
4:00 PM 70 °F 48 °F 34% 30.01 in - NNE 10.4 mph - -  
4:00 PM 69.8 °F 48.2 °F 46% 30.01 in - NNE 10.4 mph - N/A   Clear
4:30 PM 68.0 °F 53.6 °F 60% 30.01 in - North 10.4 mph - N/A   Clear
5:00 PM 66.2 °F 55.4 °F 68% 30.01 in - NNE 8.1 mph - N/A   Clear
5:30 PM 62.6 °F 55.4 °F 77% 30.01 in - North 8.1 mph - N/A   Clear
6:00 PM 62 °F 57 °F 77% 30.02 in 22 mi North 8.1 mph - -   Partly Cloudy
6:00 PM 62.6 °F 57.2 °F 82% 30.01 in - North 8.1 mph - N/A   Clear
6:30 PM 62.6 °F 59.0 °F 88% 30.01 in - North 9.2 mph - N/A   Clear
7:00 PM 64 °F 56 °F 68% 30.03 in - North 6.9 mph - -  
7:00 PM 64.4 °F 55.4 °F 73% 30.01 in - North 6.9 mph - N/A   Clear
7:30 PM 62.6 °F 55.4 °F 77% 30.01 in - North 6.9 mph - N/A   Clear
8:00 PM 60.8 °F 57.2 °F 88% 30.01 in - North 6.9 mph - N/A   Clear
8:30 PM 60.8 °F 57.2 °F 88% 30.04 in - North 5.8 mph - N/A   Clear
9:00 PM 60 °F 58 °F 91% 30.04 in 22 mi NNE 5.8 mph - -   Partly Cloudy
9:00 PM 60.8 °F 59.0 °F 94% 30.04 in - NNE 5.8 mph - N/A   Clear
9:30 PM 59.0 °F 59.0 °F 100% 30.04 in - North 5.8 mph - N/A   Clear
10:00 PM 58 °F 57 °F 96% 30.04 in - North 5.8 mph - -  
10:00 PM 59.0 °F 57.2 °F 94% 30.04 in - North 5.8 mph - N/A   Clear
10:30 PM 59.0 °F 57.2 °F 94% 30.04 in - NNE 5.8 mph - N/A   Clear
11:00 PM 59.0 °F 55.4 °F 88% 30.04 in - North 5.8 mph - N/A   Clear
11:30 PM 57.2 °F 55.4 °F 94% 30.04 in - North 8.1 mph - N/A   Clear